TimeEST,TemperatureF,Dew PointF,Humidity,Sea Level PressureIn,VisibilityMPH,Wind Direction,Wind SpeedMPH,Gust SpeedMPH,PrecipitationIn,Events,Conditions,WindDirDegrees,DateUTC
12:15 AM,32.0,17.6,55,30.22,10.0,North,3.5,-,N/A,,Overcast,10,2014-03-05 05:15:00
12:35 AM,33.8,17.6,52,30.21,10.0,Calm,Calm,-,N/A,,Overcast,0,2014-03-05 05:35:00
12:55 AM,33.8,17.6,52,30.20,10.0,Calm,Calm,-,N/A,,Overcast,0,2014-03-05 05:55:00
1:15 AM,33.8,17.6,52,30.20,10.0,Calm,Calm,-,N/A,,Overcast,0,2014-03-05 06:15:00
1:35 AM,33.8,17.6,52,30.20,10.0,Calm,Calm,-,N/A,,Overcast,0,2014-03-05 06:35:00
1:50 AM,33.8,17.6,52,30.19,10.0,Calm,Calm,-,N/A,,Overcast,0,2014-03-05 06:50:00
2:15 AM,32.0,19.4,60,30.18,10.0,North,3.5,-,N/A,,Overcast,360,2014-03-05 07:15:00
2:35 AM,32.0,17.6,55,30.18,10.0,Calm,Calm,-,N/A,,Overcast,0,2014-03-05 07:35:00
2:55 AM,32.0,19.4,60,30.18,10.0,Calm,Calm,-,N/A,,Overcast,0,2014-03-05 07:55:00
3:15 AM,32.0,19.4,60,30.17,10.0,Calm,Calm,-,N/A,,Overcast,0,2014-03-05 08:15:00
3:35 AM,32.0,19.4,60,30.14,10.0,NE,4.6,-,N/A,,Overcast,50,2014-03-05 08:35:00
3:55 AM,32.0,17.6,55,30.17,10.0,Calm,Calm,-,N/A,,Overcast,0,2014-03-05 08:55:00
4:15 AM,32.0,19.4,60,30.17,10.0,Calm,Calm,-,N/A,,Overcast,0,2014-03-05 09:15:00
4:35 AM,32.0,17.6,55,30.16,10.0,North,4.6,-,N/A,,Overcast,10,2014-03-05 09:35:00
4:55 AM,32.0,17.6,55,30.17,10.0,North,3.5,-,N/A,,Overcast,350,2014-03-05 09:55:00
5:15 AM,32.0,17.6,55,30.18,10.0,NNW,3.5,-,N/A,,Overcast,340,2014-03-05 10:15:00
5:35 AM,32.0,19.4,60,30.18,10.0,Calm,Calm,-,N/A,,Overcast,0,2014-03-05 10:35:00
5:55 AM,32.0,19.4,60,30.19,10.0,Calm,Calm,-,N/A,,Overcast,0,2014-03-05 10:55:00
6:15 AM,32.0,19.4,60,30.21,10.0,Calm,Calm,-,N/A,,Overcast,0,2014-03-05 11:15:00
6:35 AM,32.0,17.6,55,30.21,10.0,Calm,Calm,-,N/A,,Overcast,0,2014-03-05 11:35:00
6:55 AM,32.0,19.4,60,30.21,10.0,North,3.5,-,N/A,,Overcast,350,2014-03-05 11:55:00
7:15 AM,32.0,19.4,60,30.20,10.0,NNE,3.5,-,N/A,,Scattered Clouds,30,2014-03-05 12:15:00
7:35 AM,33.8,19.4,56,30.21,10.0,Calm,Calm,-,N/A,,Scattered Clouds,0,2014-03-05 12:35:00
7:55 AM,33.8,19.4,56,30.21,10.0,North,3.5,-,N/A,,Mostly Cloudy,10,2014-03-05 12:55:00
8:15 AM,33.8,17.6,52,30.21,10.0,North,5.8,-,N/A,,Scattered Clouds,360,2014-03-05 13:15:00
8:35 AM,33.8,19.4,56,30.21,10.0,North,3.5,-,N/A,,Scattered Clouds,10,2014-03-05 13:35:00
8:55 AM,33.8,19.4,56,30.21,10.0,NNE,3.5,-,N/A,,Clear,20,2014-03-05 13:55:00
9:15 AM,33.8,19.4,56,30.21,10.0,North,5.8,-,N/A,,Clear,10,2014-03-05 14:15:00
9:35 AM,35.6,19.4,52,30.21,10.0,North,3.5,-,N/A,,Scattered Clouds,360,2014-03-05 14:35:00
9:55 AM,35.6,19.4,52,30.21,10.0,North,4.6,-,N/A,,Mostly Cloudy,10,2014-03-05 14:55:00
10:15 AM,37.4,21.2,52,30.20,10.0,NNE,8.1,-,N/A,,Overcast,30,2014-03-05 15:15:00
10:35 AM,37.4,21.2,52,30.20,10.0,NNE,8.1,-,N/A,,Overcast,20,2014-03-05 15:35:00
10:55 AM,37.4,19.4,48,30.21,10.0,Calm,Calm,-,N/A,,Overcast,0,2014-03-05 15:55:00
11:15 AM,41.0,21.2,45,30.20,10.0,NNE,4.6,-,N/A,,Scattered Clouds,30,2014-03-05 16:15:00
11:35 AM,41.0,23.0,49,30.20,10.0,Calm,Calm,-,N/A,,Clear,0,2014-03-05 16:35:00
11:55 AM,42.8,23.0,46,30.20,10.0,Calm,Calm,-,N/A,,Clear,0,2014-03-05 16:55:00
12:15 PM,42.8,23.0,46,30.19,10.0,West,3.5,-,N/A,,Clear,280,2014-03-05 17:15:00
12:35 PM,42.8,23.0,46,30.18,10.0,North,5.8,-,N/A,,Clear,10,2014-03-05 17:35:00
12:55 PM,42.8,23.0,46,30.17,10.0,North,4.6,-,N/A,,Scattered Clouds,350,2014-03-05 17:55:00
1:15 PM,44.6,23.0,43,30.16,10.0,North,8.1,-,N/A,,Scattered Clouds,360,2014-03-05 18:15:00
1:35 PM,44.6,23.0,43,30.15,10.0,North,5.8,-,N/A,,Scattered Clouds,360,2014-03-05 18:35:00
1:55 PM,44.6,23.0,43,30.15,10.0,North,5.8,-,N/A,,Clear,350,2014-03-05 18:55:00
2:15 PM,44.6,23.0,43,30.14,10.0,NNE,6.9,-,N/A,,Clear,20,2014-03-05 19:15:00
2:35 PM,44.6,24.8,46,30.14,10.0,North,6.9,-,N/A,,Clear,10,2014-03-05 19:35:00
2:50 PM,44.6,26.6,49,30.13,10.0,NNE,8.1,-,N/A,,Clear,30,2014-03-05 19:50:00
3:15 PM,44.6,24.8,46,30.15,10.0,NNE,6.9,-,N/A,,Clear,20,2014-03-05 20:15:00
3:35 PM,44.6,23.0,43,30.13,10.0,North,5.8,-,N/A,,Clear,10,2014-03-05 20:35:00
3:55 PM,44.6,23.0,43,30.15,10.0,North,3.5,-,N/A,,Clear,10,2014-03-05 20:55:00
4:15 PM,44.6,23.0,43,30.15,10.0,NE,5.8,-,N/A,,Clear,50,2014-03-05 21:15:00
4:35 PM,44.6,24.8,46,30.15,10.0,NNE,6.9,-,N/A,,Clear,20,2014-03-05 21:35:00
4:55 PM,44.6,24.8,46,30.16,10.0,NNE,6.9,-,N/A,,Clear,20,2014-03-05 21:55:00
5:15 PM,44.6,23.0,43,30.17,10.0,NNE,4.6,-,N/A,,Clear,20,2014-03-05 22:15:00
5:35 PM,42.8,24.8,49,30.19,10.0,Calm,Calm,-,N/A,,Clear,0,2014-03-05 22:35:00
5:55 PM,42.8,26.6,53,30.19,10.0,NE,3.5,-,N/A,,Clear,40,2014-03-05 22:55:00
6:15 PM,41.0,24.8,53,30.20,10.0,Calm,Calm,-,N/A,,Clear,0,2014-03-05 23:15:00
6:35 PM,37.4,26.6,65,30.19,10.0,NNE,3.5,-,N/A,,Clear,30,2014-03-05 23:35:00
6:55 PM,37.4,26.6,65,30.19,10.0,North,4.6,-,N/A,,Clear,10,2014-03-05 23:55:00
7:15 PM,33.8,26.6,75,30.19,10.0,NNE,5.8,-,N/A,,Clear,30,2014-03-06 00:15:00
7:30 PM,35.6,26.6,70,30.19,10.0,Calm,Calm,-,N/A,,Clear,0,2014-03-06 00:30:00
7:55 PM,33.8,28.4,81,30.21,10.0,Calm,Calm,-,N/A,,Clear,0,2014-03-06 00:55:00
8:15 PM,33.8,26.6,75,30.22,10.0,Calm,Calm,-,N/A,,Clear,0,2014-03-06 01:15:00
8:35 PM,33.8,24.8,70,30.23,10.0,Calm,Calm,-,N/A,,Clear,0,2014-03-06 01:35:00
8:55 PM,33.8,23.0,65,30.24,10.0,Calm,Calm,-,N/A,,Clear,0,2014-03-06 01:55:00
9:15 PM,32.0,24.8,75,30.24,10.0,Calm,Calm,-,N/A,,Clear,0,2014-03-06 02:15:00
9:35 PM,32.0,26.6,80,30.26,10.0,Calm,Calm,-,N/A,,Clear,0,2014-03-06 02:35:00
9:55 PM,30.2,26.6,86,30.26,10.0,Calm,Calm,-,N/A,,Clear,0,2014-03-06 02:55:00
10:15 PM,32.0,24.8,75,30.26,10.0,Calm,Calm,-,N/A,,Clear,0,2014-03-06 03:15:00
10:35 PM,30.2,23.0,75,30.26,10.0,Calm,Calm,-,N/A,,Clear,0,2014-03-06 03:35:00
10:55 PM,32.0,26.6,80,30.26,10.0,NNE,3.5,-,N/A,,Clear,30,2014-03-06 03:55:00
11:15 PM,32.0,26.6,80,30.27,10.0,NNE,4.6,-,N/A,,Clear,20,2014-03-06 04:15:00
11:35 PM,32.0,26.6,80,30.28,10.0,Calm,Calm,-,N/A,,Clear,0,2014-03-06 04:35:00
11:55 PM,32.0,26.6,80,30.28,10.0,NNE,4.6,-,N/A,,Clear,30,2014-03-06 04:55:00